Theta_e
294 294 294 294 294 294 293 293 293 293 293 293 293 293 292 292 292 292 292 292 292 293 293 293 293 293 293 293 293 293 292 292 291 291 291 291 290 290 290 291 290 290
292 292 292 293 292 292 292 292 292 292 292 292 292 292 291 291 291 291 291 292 292 292 292 292 292 292 293 293 293 293 293 293 292 291 291 290 290 289 289 289 289 289
290 290 291 291 291 291 291 291 291 291 291 291 291 291 291 291 291 291 291 291 292 292 292 292 292 293 293 293 293 293 293 294 293 293 292 291 290 289 288 288 288 288
289 289 289 290 290 290 290 290 290 291 291 291 291 290 291 291 290 291 291 291 291 291 292 292 292 293 293 293 293 293 293 293 293 293 293 292 291 290 289 288 288 287
288 288 288 288 288 288 288 289 289 289 289 289 289 289 289 289 289 290 290 290 290 290 290 291 291 292 292 293 293 292 292 292 292 292 292 292 291 290 289 289 289 289
287 287 287 287 287 287 287 288 288 288 288 288 288 288 288 288 288 288 288 288 288 289 289 289 290 290 291 291 292 292 292 292 292 292 292 291 291 290 290 291 291 291
285 286 286 286 286 286 286 286 286 286 286 286 286 287 287 287 287 287 288 288 288 288 288 288 288 289 289 290 290 290 290 291 291 291 291 291 291 291 291 291 291 291
283 283 283 284 284 285 285 285 285 285 285 285 285 285 285 286 286 286 286 286 287 287 287 287 288 288 288 289 289 289 289 289 290 290 290 290 290 290 290 290 290 289
281 281 281 282 282 283 283 283 283 283 283 283 284 284 284 284 284 284 285 285 285 285 286 286 286 287 287 287 288 288 288 288 289 289 289 289 289 289 289 289 289 289
280 280 280 281 281 281 281 281 281 281 281 281 281 281 282 282 282 282 282 283 283 283 284 284 284 285 285 285 286 286 287 287 287 287 288 288 288 288 288 289 289 289
280 280 280 280 280 280 280 280 280 280 280 280 280 280 281 281 281 281 281 281 282 282 282 282 282 283 283 283 284 284 285 285 285 286 286 286 287 287 287 287 288 288
278 278 278 278 278 278 278 278 278 279 279 279 279 279 280 280 280 280 280 281 281 281 281 281 281 281 281 281 282 282 282 283 283 284 284 284 285 285 286 286 286 286
277 277 277 277 277 277 277 277 277 277 277 277 278 278 278 278 279 279 279 279 280 280 280 280 280 280 281 280 280 281 281 281 281 281 282 282 282 283 283 284 285 285
276 276 276 276 276 276 276 276 276 276 276 276 276 276 277 277 277 277 277 278 278 278 278 278 279 279 280 280 280 280 280 280 280 280 281 281 281 281 281 282 282 283
275 275 276 276 276 276 276 276 276 275 275 275 275 276 276 276 276 276 276 276 276 277 277 277 277 277 277 278 279 279 280 280 280 280 280 281 281 281 281 281 281 281
275 275 275 275 275 275 275 275 275 275 275 275 275 275 275 275 275 275 275 276 276 276 276 276 276 276 276 276 276 277 277 278 279 279 280 280 280 281 281 281 280 280
273 274 274 274 274 274 274 274 274 274 274 274 274 274 274 274 274 274 275 275 275 275 275 275 275 275 275 275 275 275 275 276 276 277 278 279 279 279 279 280 280 280
272 272 273 273 273 273 273 273 273 273 273 273 273 273 274 274 274 274 274 274 274 274 274 275 274 274 274 274 274 274 274 275 275 276 276 277 277 277 277 277 278 278
271 271 271 271 271 271 271 272 272 272 272 272 272 272 273 273 273 273 273 273 273 274 274 274 273 273 273 273 273 273 273 273 274 274 275 275 276 276 275 276 276 276
270 270 270 269 269 269 270 270 270 270 270 271 271 271 271 272 272 272 272 272 272 273 273 273 272 272 272 272 272 272 272 272 273 273 273 273 274 274 274 274 274 274
269 269 268 268 268 268 268 268 268 269 269 269 269 269 270 270 270 270 270 270 271 271 271 272 271 271 271 271 270 270 270 271 271 272 272 272 272 272 272 272 272 272
268 268 267 267 267 267 267 267 267 267 267 267 268 268 268 268 268 268 269 269 269 269 269 269 270 270 269 269 269 269 269 269 270 270 270 270 270 270 270 271 271 271
267 266 266 266 266 266 266 266 266 266 266 266 266 267 267 267 267 267 267 267 268 268 267 268 268 268 268 268 268 268 268 268 268 269 269 269 269 269 269 269 269 269
266 266 265 265 265 265 265 265 265 266 266 266 265 265 266 266 266 266 266 266 266 266 266 266 266 266 266 266 266 266 266 266 267 267 267 267 268 268 267 268 268 268
265 265 265 265 265 264 264 264 264 264 265 265 264 264 265 265 265 265 265 265 265 265 265 265 265 265 265 265 265 265 265 265 266 266 266 266 266 267 267 267 267 268
264 264 264 264 263 263 263 263 263 263 263 263 263 263 263 264 264 264 264 264 264 264 264 264 264 264 265 265 265 265 265 265 265 265 265 265 266 266 266 266 267 267
Wind_Speed
9 9 9 8 8 8 8 8 8 8 7 6 5 3 1 1 0 1 2 3 4 5 6 6 6 7 8 9 11 12 14 15 16 17 18 18 20 21 23 23 24 24
8 8 8 8 8 8 7 7 8 8 7 6 4 3 2 0 0 1 2 3 5 6 7 7 8 8 8 9 10 12 13 15 16 17 18 18 19 21 22 23 24 26
8 7 6 6 6 6 5 5 5 5 5 5 4 3 2 2 2 2 2 3 5 7 9 10 10 10 10 10 11 11 13 14 15 16 18 19 19 21 22 22 23 25
8 8 7 6 5 4 3 2 2 3 2 2 3 3 3 4 4 5 5 5 7 9 10 11 12 12 12 12 12 12 12 13 14 16 18 19 19 21 22 23 24 24
10 9 8 7 6 5 4 3 2 2 1 0 0 1 2 3 4 5 6 7 8 9 9 10 11 12 12 12 12 12 12 12 13 14 17 18 19 21 22 23 24 25
11 10 9 9 8 7 5 5 5 4 3 2 2 2 1 2 2 3 4 5 7 8 9 9 10 11 11 12 13 13 13 12 13 13 15 17 18 20 21 22 23 24
11 11 10 10 9 8 7 7 7 6 5 5 4 3 3 3 2 3 3 4 5 7 8 9 10 11 11 12 13 14 14 14 14 14 15 16 17 19 20 21 23 24
12 11 11 10 9 8 8 8 7 7 7 6 5 5 5 4 4 3 3 4 4 5 6 7 9 10 12 13 14 15 15 15 15 16 16 17 17 18 19 20 21 23
11 11 10 10 9 9 9 8 8 8 7 6 6 6 6 5 5 5 5 4 5 5 5 6 7 8 10 11 13 14 15 16 16 17 17 17 18 18 18 19 20 21
9 10 9 9 9 9 9 9 9 8 8 8 7 7 7 7 7 7 6 6 6 6 6 6 7 7 8 9 10 11 12 12 13 14 16 17 17 18 18 19 19 20
8 8 8 8 9 9 9 9 9 9 9 9 8 8 8 8 8 8 8 8 8 8 8 9 9 9 9 10 10 11 11 11 11 12 13 14 15 16 17 18 19 20
8 8 8 9 9 9 9 9 9 9 9 10 10 10 10 10 10 10 11 11 11 11 11 11 11 12 11 12 13 13 13 13 13 13 13 13 14 15 15 16 16 17
9 9 10 10 10 10 10 10 10 11 11 11 11 12 12 12 12 12 12 12 13 13 13 13 14 14 14 14 15 15 16 16 15 16 16 16 16 16 16 17 16 16
11 11 11 11 12 12 12 12 12 13 13 13 13 14 14 14 14 15 15 15 15 15 15 15 16 16 17 17 18 18 18 19 19 19 19 18 18 18 19 19 19 19
12 13 13 13 14 14 14 14 15 15 15 16 16 16 16 16 17 17 18 17 17 17 17 18 18 18 19 19 19 20 21 21 22 22 22 22 22 21 21 21 21 21
14 14 14 15 16 16 16 17 17 18 18 18 18 19 19 19 19 20 20 21 21 20 20 20 20 20 21 21 21 22 23 23 24 25 25 25 25 25 24 24 24 24
15 16 16 18 19 20 20 20 20 21 21 21 22 22 22 22 22 22 23 23 24 23 23 23 23 23 23 23 23 23 25 26 27 28 28 27 27 26 26 26 25 25
15 16 18 20 22 24 24 24 24 25 25 25 25 26 26 26 26 26 26 27 27 26 26 26 25 25 25 25 25 25 26 27 29 30 30 30 29 28 28 27 27 27
15 17 20 23 25 26 28 28 29 29 29 30 29 29 30 30 29 29 30 30 30 30 29 28 27 26 26 26 26 26 26 27 30 31 32 31 31 30 30 29 28 28
17 20 23 26 27 28 29 31 31 32 32 33 32 32 32 32 31 31 30 31 31 31 32 31 29 27 26 26 26 26 26 27 30 32 32 32 31 31 31 30 30 30
20 23 26 27 28 29 31 32 32 33 34 34 33 33 33 33 32 32 31 31 30 30 30 30 29 27 26 26 25 25 25 27 29 31 32 32 31 30 30 30 30 30
24 26 27 29 30 30 32 33 34 35 35 35 34 34 33 33 32 32 31 31 30 29 28 28 27 25 24 24 24 24 24 26 28 30 30 30 29 28 28 28 28 28
25 27 29 30 31 32 34 35 35 36 35 35 34 34 33 32 32 31 31 31 31 29 28 28 27 24 22 22 22 21 22 25 27 28 28 27 26 25 23 23 23 23
26 28 30 31 32 33 34 35 35 35 35 33 33 33 32 31 30 30 29 29 29 29 28 28 27 25 22 21 20 19 19 22 24 25 26 25 24 23 22 22 22 22
29 30 31 32 33 34 34 34 34 33 32 31 30 30 30 29 28 28 28 27 27 27 26 26 26 25 23 21 19 17 17 19 22 23 24 24 23 23 24 24 24 24
30 31 32 33 33 33 33 32 31 30 29 29 28 28 28 27 27 27 27 27 26 26 25 25 24 24 22 20 18 16 16 18 20 21 22 23 23 24 26 26 25 25
Wind_Direction
138 143 147 149 151 149 149 148 149 155 156 156 162 162 172 307 347 219 204 171 171 176 181 192 205 219 229 234 239 241 242 243 243 244 246 247 250 251 251 249 247 247
119 127 135 140 144 146 148 152 158 167 172 175 182 186 190 214 237 241 241 203 189 181 183 194 204 216 227 235 243 247 249 250 249 248 247 246 247 249 250 250 248 247
98 105 115 125 131 136 144 153 162 172 181 187 198 212 218 226 232 234 250 248 234 220 212 211 215 224 234 242 249 255 260 261 258 255 253 251 248 248 248 247 245 244
84 87 88 94 102 104 112 133 160 172 185 198 208 226 232 233 235 233 232 237 244 244 237 232 231 235 240 246 252 259 264 266 263 260 258 255 251 250 250 249 246 243
75 77 77 76 78 77 77 82 83 90 109 136 215 254 247 243 243 239 235 232 235 240 241 239 238 239 242 246 251 257 260 261 262 261 260 257 254 252 253 253 253 251
70 71 70 68 67 66 65 69 66 60 57 50 32 9 336 298 274 260 254 249 246 247 247 244 242 241 241 243 246 250 252 254 256 257 257 255 252 252 253 254 254 254
65 65 63 60 58 56 56 60 60 56 52 47 38 28 20 4 337 315 295 281 273 270 265 261 257 252 249 248 249 251 254 256 257 258 258 255 252 251 251 251 250 249
58 57 56 54 52 50 49 51 49 46 45 37 31 30 23 16 8 354 339 322 307 295 287 279 272 268 264 262 261 261 261 262 263 264 264 263 260 256 252 251 250 249
51 50 50 46 43 44 43 41 39 37 34 25 20 19 12 6 4 359 352 342 332 322 312 301 291 283 277 273 271 269 269 268 268 268 267 267 266 264 260 257 255 254
44 43 41 35 35 35 33 32 29 24 20 15 12 7 1 357 352 346 342 336 332 328 323 318 311 303 296 291 285 281 278 276 273 270 268 267 267 266 265 263 262 260
41 37 30 27 27 25 22 21 16 11 7 2 359 354 350 346 339 334 330 326 323 320 317 314 309 306 304 301 298 295 292 289 284 279 275 271 269 268 266 265 264 263
31 27 22 20 16 12 10 6 1 359 355 349 347 343 340 336 331 328 324 320 319 315 312 310 305 301 300 297 296 295 293 292 289 286 284 281 278 275 272 269 266 265
17 13 10 7 4 1 358 354 350 347 343 341 338 334 331 328 324 322 320 317 315 312 308 305 302 299 297 296 294 292 291 290 288 285 283 282 280 279 277 275 273 270
4 0 357 354 352 350 346 343 341 338 336 335 332 329 326 324 321 318 317 314 312 310 308 305 302 298 296 293 291 290 289 288 287 285 283 280 278 277 276 277 277 275
351 347 345 342 339 338 336 335 333 331 330 328 326 325 322 321 319 316 313 310 309 308 306 304 303 301 298 295 293 290 287 286 284 283 282 280 278 277 276 276 276 276
340 337 336 333 331 329 328 328 327 325 324 323 322 320 318 317 315 313 310 308 306 304 303 301 300 299 298 296 295 293 290 287 284 281 280 280 280 279 279 277 276 275
334 331 330 330 328 326 323 322 322 321 319 318 318 317 315 313 312 310 308 305 303 302 300 299 298 296 295 293 292 290 289 287 284 282 281 280 280 280 278 277 277 275
327 326 328 329 327 325 322 321 320 319 318 316 316 316 314 313 312 311 309 306 303 301 300 298 297 295 293 291 289 286 284 283 281 280 280 279 279 279 277 276 276 276
319 320 323 325 324 322 320 319 319 319 318 316 316 315 313 312 311 310 309 307 305 303 301 300 299 296 293 290 288 284 282 280 279 277 277 277 276 275 275 275 274 273
311 315 319 320 320 319 317 316 317 317 316 316 315 315 313 312 310 309 308 306 304 303 302 301 301 300 297 293 289 285 282 279 277 276 275 274 273 272 272 272 272 272
307 312 316 316 316 315 314 314 315 315 314 315 315 314 313 312 311 310 308 305 304 302 300 299 299 299 298 295 292 288 284 279 276 275 275 274 274 273 272 271 270 270
307 312 315 315 315 315 314 314 315 315 315 315 315 313 312 311 310 309 308 306 305 304 303 300 298 297 295 293 291 289 286 282 279 277 276 277 276 275 274 272 271 270
311 315 315 314 314 314 313 314 314 314 314 314 313 312 310 310 309 308 307 306 305 306 306 304 301 301 299 294 291 290 287 284 282 281 280 280 279 277 275 272 270 268
310 311 311 310 311 311 311 311 311 311 311 310 310 308 307 307 307 306 305 305 305 306 307 305 304 305 304 299 295 292 289 286 284 284 283 282 279 275 268 264 262 259
304 305 306 308 309 309 310 310 309 308 308 307 306 305 305 305 304 303 302 301 302 302 303 302 303 304 303 301 298 295 291 287 286 285 284 282 280 275 270 266 263 260
306 307 308 310 310 311 311 310 309 308 307 307 306 305 304 303 302 301 300 300 300 301 301 302 302 302 301 301 298 294 290 287 285 283 282 281 279 278 277 276 274 271